This demonstration page uses our WeatherBlox Daily Observations layout. Learn more.

Left ArrowRight Arrow

41.86663, -103.66717

Hourly Observations for September 24, 2018

Temp ( °F °C ) Dew Point ( °F °C ) Humidity (%) Winds ( mph kmh ) Pressure ( in mb ) Visibility ( mi km ) Precip ( " mm )
12:53 am 00:53 Clear with Light Rain 55 12.8 47 8.3 74 74 VRB 5 7 29.72 1007 10 16 N/A
1:53 am 01:53 Clear with Light Rain 51 10.6 47 8.3 86 86 ENE 8 13 29.77 1008 10 16 N/A
2:53 am 02:53 Mostly Cloudy with Light Rain 51 10.6 48 8.9 89 89 undefined N/A 29.83 1010 10 16 N/A
3:53 am 03:53 Partly Cloudy with Light Rain 50 10 48 8.9 93 93 NW 14 22 29.80 1009 10 16 N/A
4:53 am 04:53 Clear with Light Rain 51 10.6 47 8.3 86 86 WNW 7 11 29.83 1010 10 16 N/A
5:53 am 05:53 Mostly Cloudy 52 11.1 48 8.9 86 86 N N/A 29.84 1010 10 16 N/A
6:53 am 06:53 Mostly Cloudy with Light Rain 52 11.1 50 10 93 93 S 6 9 29.85 1011 10 16 N/A
7:53 am 07:53 Cloudy with Light Rain 52 11.1 52 11.1 100 100 ESE 16 26 29.78 1008 10 16 0.01 0.25
8:53 am 08:53 Sunny 54 12.2 51 10.6 90 90 NE 5 7 29.82 1010 10 16 N/A
9:53 am 09:53 Sunny 57 13.9 52 11.1 83 83 NE 3 6 29.83 1010 10 16 N/A
10:53 am 10:53 Sunny with Light Rain 64 17.8 52 11.1 65 65 NNE 9 15 29.80 1009 10 16 N/A
11:53 am 11:53 Sunny with Light Rain 65 18.3 51 10.6 61 61 E 7 11 29.80 1009 10 16 N/A
12:53 pm 12:53 Sunny with Light Rain 67 19.4 50 10 55 55 VRB 6 9 29.82 1010 10 16 N/A
1:53 pm 13:53 Sunny with Light Rain 71 21.7 50 10 47 47 VRB 7 11 29.79 1009 10 16 N/A
2:53 pm 14:53 Sunny with Light Rain 72 22.2 50 10 46 46 SSE 10 17 29.76 1008 10 16 N/A
3:53 pm 15:53 Sunny with Light Rain 72 22.2 49 9.4 44 44 SE 10 17 29.76 1008 10 16 N/A
4:53 pm 16:53 Partly Cloudy with Light Rain 70 21.1 49 9.4 47 47 E 13 20 29.76 1008 10 16 N/A
5:53 pm 17:53 Mostly Cloudy with Light Rain 68 20 49 9.4 51 51 E 15 24 29.76 1008 10 16 N/A
6:53 pm 18:53 Partly Cloudy with Light Rain 66 18.9 49 9.4 54 54 VRB 6 9 29.79 1009 10 16 N/A
7:53 pm 19:53 Clear with Light Rain 60 15.6 50 10 70 70 E 9 15 29.80 1009 10 16 N/A
8:53 pm 20:53 Clear with Light Rain 57 13.9 49 9.4 74 74 ESE 9 15 29.83 1010 10 16 N/A
9:53 pm 21:53 Clear with Light Rain 54 12.2 49 9.4 83 83 N 5 7 29.85 1011 10 16 N/A
10:53 pm 22:53 Partly Cloudy 54 12.2 47 8.3 77 77 N 14 22 29.88 1012 10 16 N/A
11:53 pm 23:53 Clear with Nearby Thunderstorms 54 12.2 48 8.9 80 80 NE 9 15 29.88 1012 10 16 N/A

Powered by AerisWeather